x

Kill Devil Hills, First Flight Airport Weather Station

11:15am - Sat 19th Apr 2014 All times are EDT. -4 hours from GMT.

  • Wind
    9mph, 20mph gusts
  • Air Temp 47°f
  • Sea Pressure 1022.4mb
  • Kill Devil Hills, First Flight Airport
  • Kill Devil Hills, First Flight Airport

More Historic Weather Station data

Upgrade to MSW Pro to gain access to the past 30 days of data for over 8000 Wavebouys and Weather Stations around the globe.

Join Pro

Comparision Forecast

View Surf forecast
   
Sat 04/19 11:15am 9 20 mph 1022.4mb 47f
10:55am 10 17 mph 1022.4mb 47f
10:15am 9 23 mph 1022mb 47f
9:55am 9 18 mph 1022mb 47f
9:15am 9 18 mph 1022mb 47f
8:55am 15 24 mph 1021.3mb 47f
8:15am 10 21 mph 1022mb 47f
7:55am 10 20 mph 1021.7mb 47f
7:15am 12 16 mph 1022mb 47f
6:55am 12 17 mph 1022mb 47f
6:15am 7 16 mph 1021.3mb 47f
5:55am 9 16 mph 1021.3mb 48f
5:15am 7 17 mph 1020.7mb 47f
4:55am 9
mph
1021mb 47f
4:15am 9 16 mph 1021.7mb 47f
3:55am 9 17 mph 1021mb 47f
3:15am 7
mph
1021.7mb 47f
2:55am 8
mph
1022mb 47f
2:15am 9
mph
1022.7mb 47f
1:55am 8
mph
1023mb 47f
1:15am 5
mph
1023.7mb 47f
12:55am 6
mph
1023.4mb 47f
12:15am 6
mph
1024.4mb 47f
Fri 04/18 11:55pm 5
mph
1024.7mb 47f
11:15pm 3
mph
1025.4mb 47f
10:55pm 10 16 mph 1024.4mb 47f
10:15pm 8
mph
1024.4mb 46f
9:55pm 6 17 mph 1024.7mb 46f
9:15pm 8
mph
1025.7mb 46f
8:55pm 5
mph
1026.1mb 46f
8:15pm 8
mph
1025.7mb 46f
7:55pm 7
mph
1025.4mb 46f
7:15pm 9
mph
1025.1mb 47f
6:55pm 7
mph
1025.1mb 47f
6:15pm 9 18 mph 1025.4mb 47f
5:55pm 10 20 mph 1025.1mb 48f
5:15pm 5 16 mph 1026.1mb 49f
4:55pm 12 17 mph 1026.1mb 49f
4:15pm 12 16 mph 1026.8mb 49f
3:55pm 12 18 mph 1027.1mb 49f
3:15pm 9 17 mph 1028.1mb 50f
2:55pm 9 20 mph 1028.1mb 49f
2:15pm 14 21 mph 1028.4mb 49f
1:55pm 10 22 mph 1028.8mb 50f
1:15pm 8 20 mph 1028.8mb 50f
12:55pm 10 17 mph 1029.1mb 50f
12:15pm 12 21 mph 1029.1mb 50f
11:55am 13 21 mph 1029.5mb 51f
11:15am 10 21 mph 1029.5mb 50f
10:55am 10 22 mph 1029.5mb 49f
10:15am 12 23 mph 1029.8mb 48f
9:55am 14 24 mph 1028.8mb 48f
9:15am 10 20 mph 1029.1mb 47f
8:55am 10 21 mph 1029.5mb 46f
8:15am 9 21 mph 1029.5mb 46f
7:55am 10 22 mph 1029.1mb 45f
7:15am 9 23 mph 1029.5mb 45f
6:55am 13 21 mph 1029.5mb 46f
6:15am 12 18 mph 1029.5mb 46f
5:55am 12 18 mph 1029.5mb 46f
5:15am 12 20 mph 1028.8mb 46f
4:55am 8
mph
1028.8mb 46f
4:15am 9 17 mph 1028.8mb 46f
3:55am 10 20 mph 1028.8mb 46f
3:15am 10 20 mph 1028.8mb 46f
2:55am 10 18 mph 1029.1mb 46f
2:15am 12 23 mph 1029.5mb 46f
1:55am 8 22 mph 1030.1mb 46f
1:15am 8 18 mph 1030.8mb 46f
12:55am 10 17 mph 1031.5mb 46f
12:15am 9 20 mph 1031.5mb 46f
Thu 04/17 11:55pm 10 18 mph 1031.5mb 46f
11:15pm 10 22 mph 1031.8mb 46f
10:55pm 9 21 mph 1031.5mb 46f
10:15pm 9 18 mph 1031.8mb 46f
9:55pm 10 22 mph 1031.8mb 46f
9:15pm 12 22 mph 1031.5mb 46f
8:55pm 9 24 mph 1031.2mb 46f
8:15pm 15 22 mph 1031.2mb 46f
7:55pm 14 22 mph 1031.5mb 46f
7:15pm 13 21 mph 1031.5mb 47f
6:55pm 10 22 mph 1031.5mb 47f
6:15pm 14 22 mph 1031.8mb 48f
5:55pm 13 23 mph 1032.2mb 49f
5:15pm 15 21 mph 1032.5mb 50f
4:55pm 13 21 mph 1032.5mb 50f
4:15pm 12 22 mph 1032.5mb 51f
3:55pm 10 21 mph 1032.2mb 50f
3:15pm 12 23 mph 1032.5mb 51f
2:55pm 12 27 mph 1032.5mb 51f
2:15pm 13 24 mph 1033.2mb 51f
1:55pm 10 22 mph 1033.2mb 52f
1:15pm 13 22 mph 1033.5mb 52f
12:55pm 9 22 mph 1033.5mb 52f
12:15pm 13 25 mph 1033.5mb 52f
11:55am 12 21 mph 1033.5mb 51f
11:15am 15 25 mph 1033.5mb 51f
10:55am 14 22 mph 1033.5mb 50f
10:15am 13 21 mph 1033.5mb 51f
9:55am 10 21 mph 1033.2mb 51f
9:15am 13 22 mph 1032.9mb 48f
8:55am 12 23 mph 1032.9mb 48f
8:15am 13 22 mph 1032.5mb 47f
7:55am 13 23 mph 1032.5mb 47f
7:15am 10 20 mph 1032.2mb 46f
6:55am 10 20 mph 1031.8mb 45f
6:15am 12 18 mph 1031.2mb 45f
5:55am 8 21 mph 1030.8mb 45f
5:15am 10 18 mph 1030.5mb 44f
4:55am 8 16 mph 1030.5mb 44f
4:15am 7 20 mph 1030.5mb 44f
3:55am 12 21 mph 1030.5mb 44f
3:15am 10 21 mph 1030.5mb 44f
2:55am 9 23 mph 1030.1mb 44f
2:15am 9 20 mph 1030.5mb 43f
1:55am 13 21 mph 1030.5mb 43f
1:15am 13 20 mph 1030.8mb 43f
12:55am 10 23 mph 1030.8mb 43f
12:15am 12 22 mph 1031.2mb 43f
Wed 04/16 11:55pm 14 22 mph 1031.2mb 43f
11:15pm 8 17 mph 1031.5mb 42f
10:55pm 12 18 mph 1031.5mb 42f
10:15pm 9 17 mph 1031.5mb 42f
9:55pm 7 16 mph 1031.5mb 41f
9:15pm 9 17 mph 1031.5mb 41f
8:55pm 9 17 mph 1031.2mb 41f
8:15pm 9 16 mph 1030.8mb 41f
7:55pm 7 17 mph 1030.5mb 41f
7:15pm 12 18 mph 1029.8mb 42f
6:55pm 13 21 mph 1029.5mb 42f
6:15pm 12 20 mph 1029.5mb 44f
5:55pm 12 22 mph 1029.1mb 44f
5:15pm 13 22 mph 1028.4mb 45f
4:55pm 14 21 mph 1028.4mb 45f
4:15pm 12 21 mph 1028.4mb 45f
3:55pm 12 21 mph 1028.8mb 45f
3:15pm 12 21 mph 1028.8mb 45f
2:55pm 13 23 mph 1028.8mb 44f
2:15pm 9 22 mph 1028.8mb 45f
1:15pm 13 22 mph 1028.4mb 44f
12:55pm 14 23 mph 1028.1mb 44f
12:15pm 12 25 mph 1027.8mb 44f
11:55am 9 22 mph 1027.8mb 43f
11:15am 10 25 mph 1027.8mb 43f
10:55am 14 25 mph 1027.8mb 43f
10:15am 15 28 mph 1026.8mb 42f
9:55am 16 28 mph 1026.1mb 42f
9:15am 16 29 mph 1025.1mb 41f
8:55am 12 24 mph 1024.7mb 41f
8:15am 13 28 mph 1023.7mb 40f
7:55am 13 27 mph 1023.4mb 40f
7:15am 15 32 mph 1022.4mb 40f
6:55am 14 28 mph 1021.7mb 40f
6:15am 14 28 mph 1020.7mb 41f
5:55am 15 29 mph 1020.3mb 41f
5:15am 20 29 mph 1019mb 42f
4:55am 10 28 mph 1019mb 42f
4:15am 15 28 mph 1018.3mb 41f
3:55am 14 24 mph 1017.6mb 40f
3:15am 16 30 mph 1016.6mb 41f
2:55am 14 35 mph 1015.6mb 40f
2:15am 15 28 mph 1015.2mb 41f
1:55am 20 31 mph 1015.2mb 41f
1:15am 16 28 mph 1013.9mb 43f
12:55am 17 33 mph 1012.5mb 43f
12:15am 16 32 mph 1012.9mb 43f
Tue 04/15 11:55pm 20 32 mph 1011.9mb 44f
11:15pm 20 37 mph 1009.5mb 45f
10:55pm 18 38 mph 1009.1mb 45f
10:15pm 15 33 mph 1008.1mb 48f
9:55pm 14 29 mph 1007.5mb 64f
9:15pm 5
mph
1005.4mb 68f
8:55pm 3
mph
1005.1mb 69f
8:15pm 9 16 mph 1005.1mb 69f
7:55pm 12 21 mph 1004.7mb 69f
7:15pm 8 17 mph 1004.1mb 69f
6:55pm 12 18 mph 1004.1mb 68f
6:15pm 8
mph
1005.1mb 68f
5:55pm 9 17 mph 1005.4mb 69f
5:15pm 9
mph
1005.8mb 70f
4:55pm 9 16 mph 1005.8mb 71f
4:15pm 8
mph
1005.4mb 71f
3:55pm 9 16 mph 1005.4mb 70f